[[{"header":{"parameterUnit":"m.s-1","parameterCategory":1,"la1":30.2992,"la2":30.254,"lo1":-89.0895,"lo2":-89.0443,"dy":0.0025,"dx":0.0025,"nx":19,"ny":19,"refTime":"2026-05-09T09:00:00:Z","depth":0,"parameterNumber":2,"parameterNumberName":"U-component_of_WINDS"},"data":[0,0,0,-4.4539,-4.4543,-4.4707,-4.4708,-4.4918,-4.492,0,0,0,0,0,0,0,0,0,0,0,-4.4493,-4.4494,-4.4539,-4.4543,-4.4707,-4.4708,-4.4918,-4.492,0,0,0,0,0,0,0,0,0,0,0,-4.4492,-4.4494,-4.4496,-4.4544,-4.4707,-4.4708,-4.4917,-4.4793,0,0,0,0,0,0,0,0,0,0,-4.4633,-4.4592,-4.4493,-4.4496,-4.4545,-4.4707,-4.4708,-4.4787,-4.4801,-4.4845,0,-4.4886,0,-4.4907,-4.4934,-4.4935,0,0,0,-4.4541,-4.4581,-4.4624,-4.4496,-4.4546,-4.4707,-4.4632,-4.4794,-4.481,-4.4863,-4.4889,-4.4897,-4.491,-4.4936,-4.4937,-4.5202,-4.5204,0,0,-4.4532,-4.4522,-4.4613,-4.4634,-4.4611,-4.4627,-4.4638,-4.4804,-4.4831,-4.489,-4.4902,-4.4914,-4.4937,-4.4939,-4.5201,-4.5203,0,0,0,-4.4507,-4.4516,-4.4555,-4.4626,-4.4655,-4.4632,-4.4644,-4.4823,-4.4837,-4.4904,-4.4916,-4.4938,-4.4941,-4.52,-4.5202,-4.5257,0,0,0,-4.4501,-4.4502,-4.4551,-4.4547,-4.4652,-4.4742,-4.466,-4.4825,-4.4845,-4.4915,-4.4939,-4.4943,-4.5198,-4.5201,-4.5252,-4.5283,0,0,0,-4.4481,-4.4499,-4.4524,-4.4546,-4.4617,-4.4739,-4.4763,-4.483,-4.4852,-4.4935,-4.4944,-4.5197,-4.52,-4.5248,-4.5276,-4.5347,0,0,0,-4.4456,-4.4572,-4.4525,-4.466,-4.4616,-4.4775,-4.4762,-4.488,-4.4959,-4.494,-4.5198,-4.5201,-4.5247,-4.5272,-4.5343,-4.5402,-4.5427,0,0,-4.4596,-4.4588,-4.4668,-4.4632,-4.4796,-4.475,-4.4923,-4.5003,-4.5019,-4.514,-4.5146,-4.5254,-4.5276,-4.5346,-4.5581,-4.5601,0,0,0,-4.4709,-4.4766,-4.4812,-4.4887,-4.4953,-4.501,-4.5065,-4.5095,-4.5199,-4.508,-4.5302,-4.5315,-4.5357,-4.5385,-4.5402,-4.5436,-4.5216,-4.5216,-4.5215,-4.4891,-4.4907,-4.504,-4.5076,-4.515,-4.5206,-4.5266,-4.5315,-4.5309,-4.5362,-4.5395,-4.5536,-4.557,-4.5582,-4.5618,-4.5433,-4.5433,-4.5433,-4.5434,-4.5094,-4.5175,-4.5168,-4.5292,-4.5309,-4.5413,-4.5473,-4.5466,-4.5564,-4.5512,-4.555,-4.5486,-4.5604,-4.5635,-4.5438,-4.5437,-4.5437,-4.5436,-4.5436,-4.5209,-4.5251,-4.5288,-4.5399,-4.5482,-4.5517,-4.5611,-4.5624,-4.5636,-4.5673,-4.5708,-4.5707,-4.5703,-4.5691,-4.5691,-4.5692,-4.5692,-4.5692,-4.5693,-4.5312,-4.5352,-4.5431,-4.5513,-4.5563,-4.5631,-4.5692,-4.574,-4.5797,-4.5798,-4.5798,-4.5784,-4.5615,-4.5568,-4.57,-4.5699,-4.5698,-4.5697,-4.5697,-4.5501,-4.5461,-4.5583,-4.5634,-4.573,-4.5811,-4.5829,-4.5927,-4.597,-4.6016,-4.5997,-4.5872,-4.5862,-4.5849,-4.581,-4.5996,-4.5996,-4.5996,-4.5996,-4.5594,-4.5593,-4.572,-4.58,-4.588,-4.5909,-4.6043,-4.6093,-4.6136,-4.6163,-4.614,-4.6092,-4.6078,-4.6077,-4.6059,-4.6022,-4.6258,-4.6258,-4.6259,-4.5709,-4.5717,-4.5829,-4.5874,-4.5952,-4.6017,-4.6143,-4.6233,-4.6275,-4.6269,-4.6183,-4.6172,-4.6095,-4.6071,-4.6055,-4.6027,-4.596,0,0]},{"header":{"parameterUnit":"m.s-1","parameterCategory":1,"la1":30.2992,"la2":30.254,"lo1":-89.0895,"lo2":-89.0443,"dy":0.0025,"dx":0.0025,"nx":19,"ny":19,"refTime":"2026-05-09T09:00:00:Z","depth":0,"parameterNumber":3,"parameterNumberName":"V-component_of_WINDS"},"data":[0,0,0,4.0078,4.0081,4.0255,4.0255,4.0449,4.0451,0,0,0,0,0,0,0,0,0,0,0,4.0014,4.0015,4.0078,4.0082,4.0254,4.0255,4.0449,4.0451,0,0,0,0,0,0,0,0,0,0,0,4.0013,4.0014,4.0016,4.0082,4.0254,4.0255,4.0448,4.0327,0,0,0,0,0,0,0,0,0,0,4.0163,4.0092,4.0014,4.0016,4.0083,4.0254,4.0256,4.0321,4.0334,4.036,0,4.0383,0,4.042,4.0462,4.0463,0,0,0,4.009,4.0081,4.014,4.0016,4.0085,4.0254,4.0179,4.0329,4.0343,4.0377,4.0386,4.0394,4.0423,4.0463,4.0464,4.0593,4.0593,0,0,4.008,4.0037,4.013,4.0149,4.0125,4.0173,4.0184,4.0338,4.0343,4.0387,4.0399,4.0426,4.0464,4.0466,4.0593,4.0593,0,0,0,4.0047,4.003,4.0086,4.014,4.0174,4.0178,4.0191,4.0337,4.0359,4.0401,4.0429,4.0465,4.0468,4.0593,4.0593,4.0563,0,0,0,4.0042,4.0011,4.0081,4.0056,4.0171,4.0258,4.0185,4.0348,4.0367,4.0428,4.0465,4.0469,4.0593,4.0593,4.0563,4.0555,0,0,0,4.0007,4.0007,4.0028,4.0053,4.0127,4.0257,4.0288,4.0353,4.0383,4.0463,4.047,4.0593,4.0593,4.0564,4.0556,4.0577,0,0,0,3.9955,3.9997,4.0027,4.0083,4.0125,4.0238,4.0287,4.0373,4.0438,4.0466,4.0593,4.0593,4.0564,4.0557,4.0577,4.0588,4.0588,0,0,3.9983,3.9998,4.0035,4.0067,4.0164,4.0215,4.0306,4.0405,4.045,4.0541,4.0545,4.0563,4.0556,4.0577,4.0604,4.0604,0,0,0,4.0029,4.0055,4.009,4.0151,4.023,4.0295,4.0385,4.0421,4.0502,4.049,4.0577,4.0575,4.0589,4.0596,4.0596,4.061,4.0594,4.0594,4.0594,4.0005,4.0064,4.0128,4.0207,4.0265,4.0357,4.0409,4.0473,4.0513,4.0532,4.056,4.057,4.0576,4.0577,4.0591,4.057,4.057,4.0569,4.0569,4.0051,4.0097,4.015,4.0232,4.0291,4.0359,4.0448,4.0473,4.0543,4.0553,4.0569,4.0576,4.0575,4.059,4.0568,4.0568,4.0568,4.0568,4.0569,4.0043,4.0076,4.0121,4.0216,4.0281,4.0358,4.0423,4.0474,4.0522,4.0537,4.0572,4.0572,4.0579,4.055,4.055,4.055,4.055,4.055,4.055,4.0018,4.007,4.0121,4.0207,4.0253,4.032,4.0411,4.0457,4.0519,4.0551,4.0552,4.0588,4.0564,4.0558,4.0551,4.055,4.055,4.055,4.055,4.0045,4.0047,4.0125,4.0171,4.0276,4.0337,4.0401,4.0489,4.0533,4.0563,4.0596,4.057,4.0589,4.0589,4.0584,4.0584,4.0584,4.0584,4.0584,4.0038,4.0053,4.0145,4.0215,4.0289,4.0355,4.0438,4.0508,4.0581,4.0611,4.0618,4.0615,4.0613,4.0632,4.0632,4.0628,4.0639,4.0639,4.0639,4.0058,4.0082,4.0146,4.022,4.0305,4.0376,4.0455,4.053,4.0612,4.0643,4.0635,4.0633,4.0629,4.0625,4.0656,4.0654,4.0647,0,0]}]]